Mayfield, KY

5:38 AM CST on February 08, 2016 (GMT -0600)
Mayfld Grav Cnty AP, Mayfield

Weather History for KM25 - April, 2014

Change the Weather History Date:

Wednesday, April 30, 2014

  Actual Average (KPAH) Record (KPAH)
Temperature  
Mean Temperature 50 °F 63 °F  
Max Temperature 55 °F 74 °F 88 °F (2007)
Min Temperature 46 °F 51 °F 35 °F (1969)
Degree Days  
Heating Degree Days 14 4  
Month to date heating degree days 244  
Since 1 July heating degree days 4064  
Cooling Degree Days 0 2  
Month to date cooling degree days 35  
Year to date cooling degree days 42  
Moisture  
Dew Point 44 °F    
Average Humidity 76    
Maximum Humidity 88    
Minimum Humidity 63    
Precipitation  
Precipitation 0.00 in 0.17 in 2.14 in (1983)
Month to date precipitation 4.76  
Year to date precipitation 16.28  
Snow  
Snow 0.00 in 0.00 in T in (2006)
Month to date snowfall T  
Since 1 July snowfall 9.1  
Snow Depth -    
Sea Level Pressure  
Sea Level Pressure 29.89 in    
Wind  
Wind Speed 6 mph (West)    
Max Wind Speed 13 mph    
Max Gust Speed 18 mph    
Visibility 10 miles    
Events      
T = Trace of Precipitation, MM = Missing Value Source: NWS Daily Summary

Daily Weather History Graph

Daily Weather History Graph

Search for Another Location

Airport or City:

Trip Planner

Search our weather history database for the weather conditions in past years. The results will help you decide how hot, cold, wet, or windy it might be!

Date:

Astronomy

Apr. 30, 2014 Rise Set
Actual Time 6:01 AM CDT 7:42 PM CDT
Civil Twilight 5:33 AM CDT 8:09 PM CDT
Nautical Twilight 5:00 AM CDT 8:43 PM CDT
Astronomical Twilight 4:25 AM CDT 9:18 PM CDT
Moon 7:03 AM CDT (4/30) 9:19 PM CDT (4/30)
Length of Visible Light 14h 36m
Length of Day
13h 40m
New Moon, 2% of the Moon is Illuminated
Apr 30
New Moon
May 6
First Quarter
May 14
Full
May 21
Last Quarter
May 28
New

Hourly Weather History & Observations

Time (CDT) Temp. Windchill Dew Point Humidity Pressure Visibility Wind Dir Wind Speed Gust Speed Precip Events Conditions
12:15 AM 53.6 °F - 50.0 °F 88% 29.80 in 10.0 mi West 6.9 mph - N/A   Clear
12:35 AM 53.6 °F - 50.0 °F 88% 29.80 in 10.0 mi Calm Calm - N/A   Clear
12:55 AM 53.6 °F - 46.4 °F 77% 29.80 in 10.0 mi WNW 8.1 mph - N/A   Clear
1:15 AM 53.6 °F - 46.4 °F 77% 29.79 in 10.0 mi WNW 8.1 mph - N/A   Clear
1:35 AM 53.6 °F - 44.6 °F 72% 29.79 in 10.0 mi WNW 9.2 mph - N/A   Clear
1:55 AM 51.8 °F - 42.8 °F 71% 29.80 in 10.0 mi WNW 5.8 mph - N/A   Clear
2:15 AM 51.8 °F - 42.8 °F 71% 29.80 in 10.0 mi WNW 4.6 mph - N/A   Clear
2:35 AM 50.0 °F - 42.8 °F 76% 29.79 in 10.0 mi West 3.5 mph - N/A   Clear
2:55 AM 46.4 °F - 42.8 °F 87% 29.80 in 10.0 mi Calm Calm - N/A   Clear
3:15 AM 46.4 °F - 42.8 °F 87% 29.81 in 10.0 mi Calm Calm - N/A   Clear
3:35 AM 46.4 °F 44.3 °F 42.8 °F 87% 29.81 in 10.0 mi West 4.6 mph - N/A   Clear
3:55 AM 48.2 °F - 42.8 °F 82% 29.81 in 10.0 mi West 3.5 mph - N/A   Clear
4:15 AM 46.4 °F - 42.8 °F 87% 29.81 in 10.0 mi Calm Calm - N/A   Scattered Clouds
4:35 AM 46.4 °F 45.2 °F 42.8 °F 87% 29.81 in 10.0 mi West 3.5 mph - N/A   Mostly Cloudy
4:55 AM 48.2 °F - 42.8 °F 82% 29.81 in 10.0 mi WNW 5.8 mph - N/A   Mostly Cloudy
5:15 AM 46.4 °F 44.3 °F 42.8 °F 87% 29.81 in 10.0 mi West 4.6 mph - N/A   Clear
5:35 AM 46.4 °F - 42.8 °F 87% 29.81 in 10.0 mi Calm Calm - N/A   Clear
5:55 AM 46.4 °F 44.3 °F 42.8 °F 87% 29.81 in 10.0 mi WNW 4.6 mph - N/A   Clear
6:15 AM 46.4 °F 45.2 °F 42.8 °F 87% 29.82 in 10.0 mi WNW 3.5 mph - N/A   Clear
6:35 AM 46.4 °F - 42.8 °F 87% 29.83 in 10.0 mi Calm Calm - N/A   Clear
6:55 AM 46.4 °F - 42.8 °F 87% 29.84 in 10.0 mi Calm Calm - N/A   Clear
7:15 AM 48.2 °F - 42.8 °F 82% 29.83 in 10.0 mi WNW 3.5 mph - N/A   Clear
7:35 AM 50.0 °F - 42.8 °F 76% 29.84 in 10.0 mi WNW 8.1 mph - N/A   Clear
7:55 AM 50.0 °F - 42.8 °F 76% 29.84 in 10.0 mi WNW 6.9 mph - N/A   Clear
8:15 AM 51.8 °F - 42.8 °F 71% 29.85 in 10.0 mi West 4.6 mph - N/A   Clear
8:35 AM 51.8 °F - 42.8 °F 71% 29.86 in 10.0 mi West 6.9 mph - N/A   Clear
8:55 AM 53.6 °F - 42.8 °F 67% 29.86 in 10.0 mi West 8.1 mph - N/A   Clear
9:15 AM 53.6 °F - 42.8 °F 67% 29.86 in 10.0 mi WNW 8.1 mph - N/A   Clear
9:35 AM 53.6 °F - 42.8 °F 67% 29.87 in 10.0 mi West 9.2 mph - N/A   Clear
9:55 AM 53.6 °F - 42.8 °F 67% 29.87 in 10.0 mi WNW 8.1 mph - N/A   Scattered Clouds
10:15 AM 55.4 °F - 44.6 °F 67% 29.87 in 10.0 mi West 11.5 mph - N/A   Scattered Clouds
10:35 AM 55.4 °F - 44.6 °F 67% 29.88 in 10.0 mi WSW 10.4 mph - N/A   Scattered Clouds
10:55 AM 55.4 °F - 44.6 °F 67% 29.89 in 10.0 mi WSW 9.2 mph - N/A   Mostly Cloudy
11:15 AM 55.4 °F - 42.8 °F 63% 29.89 in 10.0 mi West 9.2 mph - N/A   Overcast
11:35 AM 55.4 °F - 44.6 °F 67% 29.90 in 10.0 mi West 8.1 mph - N/A   Overcast
11:55 AM 55.4 °F - 42.8 °F 63% 29.90 in 10.0 mi West 12.7 mph 18.4 mph N/A   Overcast
12:15 PM 55.4 °F - 44.6 °F 67% 29.90 in 10.0 mi WSW 9.2 mph - N/A   Overcast
12:35 PM 55.4 °F - 42.8 °F 63% 29.90 in 10.0 mi WSW 12.7 mph 17.3 mph N/A   Overcast
12:55 PM 55.4 °F - 42.8 °F 63% 29.91 in 10.0 mi WNW 9.2 mph 18.4 mph N/A   Overcast
1:15 PM 53.6 °F - 44.6 °F 72% 29.92 in 10.0 mi WNW 12.7 mph 18.4 mph N/A   Overcast
1:35 PM 53.6 °F - 44.6 °F 72% 29.92 in 10.0 mi West 11.5 mph - N/A   Overcast
1:55 PM 53.6 °F - 44.6 °F 72% 29.92 in 10.0 mi WSW 8.1 mph - N/A   Overcast
2:15 PM 55.4 °F - 44.6 °F 67% 29.92 in 10.0 mi West 11.5 mph 17.3 mph N/A   Overcast
2:35 PM 53.6 °F - 44.6 °F 72% 29.92 in 10.0 mi West 8.1 mph - N/A   Overcast
2:55 PM 53.6 °F - 44.6 °F 72% 29.92 in 10.0 mi West 6.9 mph - N/A   Overcast
3:15 PM 53.6 °F - 44.6 °F 72% 29.92 in 10.0 mi West 11.5 mph - N/A   Overcast
3:35 PM 53.6 °F - 44.6 °F 72% 29.93 in 10.0 mi West 11.5 mph 16.1 mph N/A   Overcast
3:55 PM 53.6 °F - 44.6 °F 72% 29.93 in 10.0 mi West 9.2 mph - N/A   Overcast
4:15 PM 53.6 °F - 44.6 °F 72% 29.93 in 10.0 mi WSW 9.2 mph - N/A   Overcast
4:35 PM 53.6 °F - 44.6 °F 72% 29.94 in 10.0 mi West 11.5 mph 16.1 mph N/A   Overcast
4:55 PM 53.6 °F - 44.6 °F 72% 29.95 in 10.0 mi WNW 9.2 mph - N/A   Overcast
5:15 PM 51.8 °F - 44.6 °F 76% 29.95 in 10.0 mi West 5.8 mph - N/A   Overcast
5:35 PM 51.8 °F - 44.6 °F 76% 29.96 in 10.0 mi WSW 8.1 mph - N/A   Overcast
5:55 PM 51.8 °F - 44.6 °F 76% 29.96 in 10.0 mi WSW 8.1 mph - N/A   Overcast
6:15 PM 51.8 °F - 44.6 °F 76% 29.96 in 10.0 mi West 8.1 mph - N/A   Overcast
6:35 PM 51.8 °F - 42.8 °F 71% 29.97 in 10.0 mi WSW 9.2 mph - N/A   Overcast
6:55 PM 51.8 °F - 41.0 °F 67% 29.97 in 10.0 mi West 8.1 mph - N/A   Overcast
7:15 PM 51.8 °F - 42.8 °F 71% 29.97 in 10.0 mi WSW 4.6 mph - N/A   Overcast
7:35 PM 51.8 °F - 42.8 °F 71% 29.98 in 10.0 mi WSW 6.9 mph - N/A   Overcast
7:55 PM 51.8 °F - 42.8 °F 71% 29.98 in 10.0 mi WSW 6.9 mph - N/A   Overcast
8:15 PM 51.8 °F - 42.8 °F 71% 29.98 in 10.0 mi SW 5.8 mph - N/A   Overcast
8:35 PM 51.8 °F - 42.8 °F 71% 29.98 in 10.0 mi SW 4.6 mph - N/A   Overcast
8:55 PM 51.8 °F - 44.6 °F 76% 29.99 in 10.0 mi Calm Calm - N/A   Overcast
9:15 PM 51.8 °F - 44.6 °F 76% 30.00 in 10.0 mi SW 5.8 mph - N/A   Overcast
9:35 PM 50.0 °F - 44.6 °F 82% 30.00 in 10.0 mi SW 4.6 mph - N/A   Overcast
9:55 PM 50.0 °F - 44.6 °F 82% 30.00 in 10.0 mi SSW 4.6 mph - N/A   Mostly Cloudy
10:15 PM 48.2 °F - 44.6 °F 87% 30.00 in 10.0 mi SW 4.6 mph - N/A   Clear
10:35 PM 48.2 °F - 42.8 °F 82% 30.00 in 10.0 mi SW 4.6 mph - N/A   Clear
10:55 PM 46.4 °F 43.5 °F 42.8 °F 87% 30.00 in 10.0 mi SSW 5.8 mph - N/A   Clear
11:15 PM 46.4 °F 43.5 °F 42.8 °F 87% 30.00 in 10.0 mi SW 5.8 mph - N/A   Clear
11:35 PM 46.4 °F 44.3 °F 42.8 °F 87% 30.00 in 10.0 mi SW 4.6 mph - N/A   Clear
11:55 PM 46.4 °F 43.5 °F 42.8 °F 87% 30.00 in 10.0 mi SW 5.8 mph - N/A   Clear